Total_Precipitation_Accumulation
1.60 1.75 1.85 1.91 1.89 1.76 1.78 1.85 1.74 1.48 1.31 1.16 1.06 0.98 0.96 1.00 1.29 1.22 1.05 1.01 0.90 0.83 0.78 0.77 0.77 0.78 0.91 1.08 1.26 1.41 1.53 1.53 1.55 1.62 1.64 1.60 1.60 1.59
1.56 1.69 1.71 1.74 1.77 1.69 1.67 1.81 1.79 1.57 1.33 1.15 1.03 0.99 1.07 1.03 1.21 1.08 1.15 1.23 0.97 0.84 0.79 0.80 0.74 0.67 0.61 0.66 0.79 0.91 0.98 1.01 1.11 1.20 1.27 1.28 1.26 1.27
1.07 1.20 1.41 1.59 1.65 1.65 1.71 1.77 1.82 1.68 1.42 1.28 1.07 1.06 1.19 1.17 1.17 1.10 1.18 1.23 1.01 0.89 0.76 0.72 0.72 0.67 0.65 0.60 0.60 0.66 0.73 0.77 0.84 0.91 0.99 1.05 1.03 1.02
0.86 0.88 0.99 1.21 1.38 1.51 1.60 1.62 1.69 1.68 1.54 1.51 1.43 1.19 1.12 1.16 1.29 1.36 1.29 1.26 1.22 1.18 1.05 0.84 0.75 0.70 0.67 0.64 0.58 0.54 0.56 0.61 0.67 0.72 0.75 0.85 0.95 0.97
0.80 0.82 0.89 0.98 1.14 1.24 1.35 1.46 1.54 1.67 1.66 1.49 1.53 1.45 1.24 1.21 1.27 1.35 1.41 1.49 1.38 1.32 1.37 1.18 0.96 0.85 0.78 0.72 0.64 0.59 0.58 0.60 0.63 0.68 0.72 0.75 0.78 0.83
0.79 0.86 0.88 0.88 1.00 1.21 1.34 1.42 1.46 1.57 1.70 1.64 1.58 1.54 1.38 1.31 1.31 1.34 1.46 1.56 1.57 1.37 1.27 1.23 1.15 1.02 0.89 0.82 0.74 0.69 0.68 0.66 0.67 0.69 0.71 0.78 0.80 0.78
0.68 0.69 0.77 0.84 0.87 1.03 1.19 1.42 1.45 1.57 1.65 1.72 1.65 1.49 1.38 1.31 1.26 1.26 1.35 1.55 1.60 1.57 1.48 1.29 1.17 1.00 0.88 0.85 0.83 0.82 0.77 0.72 0.73 0.79 0.82 0.83 0.84 0.85
0.68 0.70 0.70 0.71 0.74 0.78 0.82 1.07 1.26 1.39 1.49 1.52 1.58 1.47 1.35 1.29 1.37 1.38 1.32 1.37 1.48 1.50 1.37 1.42 1.38 1.20 1.05 0.92 0.98 1.03 1.00 0.93 0.83 0.79 0.83 0.88 0.91 0.93
0.61 0.70 0.75 0.73 0.78 0.88 0.84 0.87 0.97 1.03 1.16 1.29 1.35 1.31 1.29 1.26 1.35 1.39 1.36 1.29 1.21 1.31 1.29 1.35 1.41 1.29 1.15 1.04 1.04 1.02 1.00 0.97 0.90 0.83 0.78 0.80 0.86 0.92
0.62 0.62 0.74 0.79 0.85 1.01 1.00 1.07 1.00 0.90 0.88 0.94 1.09 1.15 1.11 1.21 1.30 1.48 1.54 1.41 1.30 1.33 1.31 1.23 1.20 1.16 1.08 1.07 1.07 0.94 0.89 0.89 0.88 0.85 0.78 0.75 0.75 0.80
0.58 0.62 0.73 0.83 0.97 1.08 1.13 1.16 1.05 0.95 0.98 1.06 1.14 1.21 1.23 1.30 1.36 1.43 1.48 1.47 1.39 1.37 1.28 1.15 1.06 1.06 1.06 1.03 1.00 1.00 0.94 0.90 0.87 0.85 0.83 0.81 0.83 0.92
0.63 0.64 0.85 0.86 0.95 1.00 1.06 1.18 1.20 1.06 0.99 1.02 1.07 1.09 1.09 1.17 1.36 1.38 1.48 1.57 1.43 1.36 1.26 1.14 1.10 1.19 1.24 1.10 0.97 0.93 0.91 0.97 0.97 0.92 0.90 0.90 0.94 0.93
0.59 0.64 0.61 0.74 0.76 0.86 0.98 1.06 1.27 1.15 1.08 1.09 1.07 0.97 0.94 0.99 1.12 1.29 1.43 1.51 1.45 1.24 1.13 1.13 1.14 1.17 1.15 1.07 1.00 0.96 0.94 0.91 0.93 0.92 0.94 0.99 1.03 0.97
0.42 0.54 0.54 0.63 0.68 0.74 0.76 0.93 1.11 1.08 1.02 1.09 1.10 1.02 0.93 0.92 0.94 1.01 1.18 1.25 1.23 1.19 1.14 1.09 1.06 1.04 1.02 0.94 0.92 0.96 0.99 0.94 0.92 0.92 0.92 1.05 1.09 1.15
0.28 0.43 0.51 0.58 0.57 0.57 0.68 0.87 0.93 0.98 1.10 1.07 1.08 1.02 0.93 0.90 0.83 0.87 0.98 1.06 1.04 1.01 1.02 1.03 1.08 1.06 1.02 0.93 0.83 0.81 0.91 0.98 0.95 0.94 0.95 0.97 0.94 0.98
0.28 0.40 0.52 0.58 0.57 0.57 0.64 0.77 0.83 0.95 1.09 1.02 0.98 0.93 0.86 0.87 0.84 0.84 0.87 0.93 0.99 0.96 0.93 0.93 1.07 1.24 1.23 1.11 1.06 0.97 0.92 0.93 0.93 0.99 1.02 1.02 1.02 1.02
0.36 0.52 0.65 0.66 0.66 0.63 0.67 0.77 0.75 0.73 0.82 0.82 0.84 0.85 0.83 0.83 0.79 0.74 0.76 0.80 0.84 0.82 0.81 0.80 0.81 0.89 1.03 1.11 1.13 1.07 1.08 1.10 1.09 1.12 1.15 1.06 0.98 0.99
0.54 0.71 0.82 0.90 0.89 0.83 0.79 0.77 0.71 0.69 0.69 0.71 0.80 0.80 0.77 0.80 0.80 0.74 0.74 0.77 0.78 0.76 0.73 0.68 0.70 0.77 0.86 0.89 0.83 0.82 0.87 0.92 0.96 1.04 1.13 1.10 0.97 0.89
0.82 0.86 0.89 0.93 0.96 0.89 0.78 0.70 0.60 0.54 0.56 0.63 0.66 0.68 0.71 0.72 0.77 0.77 0.75 0.73 0.69 0.67 0.65 0.62 0.66 0.73 0.81 0.78 0.67 0.61 0.70 0.79 0.85 0.91 0.96 0.93 0.83 0.79
0.85 0.87 0.95 0.94 0.90 0.79 0.65 0.56 0.47 0.45 0.48 0.50 0.50 0.49 0.54 0.60 0.65 0.69 0.71 0.69 0.65 0.62 0.62 0.62 0.66 0.73 0.79 0.78 0.70 0.60 0.62 0.72 0.77 0.82 0.83 0.87 0.83 0.85
0.51 0.56 0.61 0.61 0.57 0.51 0.45 0.42 0.38 0.37 0.39 0.41 0.43 0.44 0.48 0.50 0.52 0.57 0.64 0.70 0.70 0.67 0.65 0.61 0.61 0.69 0.74 0.80 0.76 0.61 0.55 0.65 0.75 0.76 0.78 0.87 0.89 0.85
0.27 0.29 0.30 0.30 0.31 0.31 0.33 0.35 0.37 0.38 0.40 0.42 0.45 0.45 0.49 0.53 0.51 0.51 0.56 0.62 0.65 0.66 0.66 0.65 0.68 0.74 0.77 0.81 0.73 0.62 0.54 0.54 0.65 0.82 0.85 0.83 0.79 0.74
0.24 0.25 0.26 0.27 0.27 0.30 0.35 0.37 0.40 0.40 0.40 0.43 0.47 0.46 0.47 0.51 0.53 0.55 0.58 0.61 0.64 0.66 0.67 0.67 0.72 0.77 0.77 0.75 0.71 0.65 0.60 0.56 0.57 0.67 0.77 0.89 0.81 0.66